This is the latest recevied weather packets stored in our database for station/object DK9HI-WX. If no packets are shown the sender has not sent any weather packets the latest 10 day(s).
| Time | Temp. | Humidity | Pressure | Rain* | Wind** | Luminosity | Snow |
|---|---|---|---|---|---|---|---|
| 1788622628 | 20.56° C | 61% | 1020.7 hPa | - | - | - | - |
| 1788622029 | 21.11° C | 60% | 1020.6 hPa | - | - | - | - |
| 1788621429 | 21.11° C | 58% | 1020.2 hPa | - | - | - | - |
| 1788620829 | 21.67° C | 56% | 1020.1 hPa | - | - | - | - |
| 1788620229 | 21.67° C | 57% | 1020.1 hPa | - | - | - | - |
| 1788619629 | 21.11° C | 58% | 1019.8 hPa | - | - | - | - |
| 1788619029 | 21.11° C | 59% | 1019.8 hPa | - | - | - | - |
| 1788618428 | 21.11° C | 62% | 1019.8 hPa | - | - | - | - |
| 1788617828 | 20.56° C | 62% | 1019.8 hPa | - | - | - | - |
| 1788617228 | 21.11° C | 61% | 1019.8 hPa | - | - | - | - |
| 1788616628 | 21.11° C | 60% | 1019.6 hPa | - | - | - | - |
| 1788616029 | 21.67° C | 60% | 1019.3 hPa | - | - | - | - |
| 1788615428 | 21.67° C | 60% | 1019.2 hPa | - | - | - | - |
| 1788614828 | 21.11° C | 60% | 1019.2 hPa | - | - | - | - |
| 1788614228 | 21.11° C | 62% | 1019 hPa | - | - | - | - |
| 1788613628 | 21.11° C | 67% | 1019.1 hPa | - | - | - | - |
| 1788613029 | 21.11° C | 70% | 1018.9 hPa | - | - | - | - |
| 1788612433 | 20.56° C | 70% | 1018.9 hPa | - | - | - | - |
| 1788611828 | 20° C | 79% | 1019 hPa | - | - | - | - |
| 1788611228 | 20° C | 82% | 1019 hPa | - | - | - | - |
| 1788610629 | 20° C | 85% | 1018.9 hPa | - | - | - | - |
| 1788610028 | 19.44° C | 87% | 1019 hPa | - | - | - | - |
| 1788609428 | 19.44° C | 86% | 1018.9 hPa | - | - | - | - |
| 1788608828 | 19.44° C | 80% | 1018.9 hPa | - | - | - | - |
| 1788608228 | 20° C | 74% | 1018.7 hPa | - | - | - | - |
* Rain since midnight (hover to see other rain measurements)
** Current wind speed in m/s (hover to see current wind gust speed)